Weather History for Houghton, MI

Change the Weather History Date:

Tuesday, December 27, 2011

  Actual Average Record
Temperature  
Mean Temperature 28 °F -  
Max Temperature 43 °F 23 °F 43 °F (2011)
Min Temperature 12 °F 11 °F -7 °F (1990)
Degree Days  
Heating Degree Days 38    
Moisture  
Dew Point 15 °F    
Average Humidity 83    
Maximum Humidity 93    
Minimum Humidity 49    
Precipitation  
Precipitation 0.01 in - - ()
Sea Level Pressure  
Sea Level Pressure 29.78 in    
Wind  
Wind Speed 20 mph (North)    
Max Wind Speed 32 mph    
Max Gust Speed 43 mph    
Visibility 3 miles    
Events Fog , Snow    
Averages and records for this station are not official NWS values.
T = Trace of Precipitation, MM = Missing Value Source: NWS Daily Summary

Daily Weather History Graph

Daily Weather History Graph

Search for Another Location

Airport:

Trip Planner

Search our weather history database for the weather conditions in past years. The results will help you decide how hot, cold, wet, or windy it might be!

Date:

Astronomy

Dec. 27, 2011 Rise Set
Actual Time 8:39 AM EST 5:10 PM EST
Civil Twilight 8:04 AM EST 5:45 PM EST
Nautical Twilight 7:25 AM EST 6:24 PM EST
Astronomical Twilight 6:48 AM EST 7:02 PM EST
Moon 10:23 AM EST (12/27) 8:57 PM EST (12/27)
Length of Visible Light 9h 41m
Length of Day
8h 30m
Waxing Crescent, 11% of the Moon is Illuminated
Dec 27
Waxing Crescent
Jan 1
First Quarter
Jan 9
Full
Jan 16
Last Quarter
Jan 23
New

Hourly Weather History & Observations

Time (EST) Temp. Windchill Dew Point Humidity Pressure Visibility Wind Dir Wind Speed Gust Speed Precip Events Conditions
12:53 AM 43.0 °F 33.3 °F 25.0 °F 49% 29.47 in 10.0 mi West 25.3 mph 33.4 mph N/A   Overcast
1:53 AM 39.9 °F 29.0 °F 28.9 °F 65% 29.47 in 10.0 mi West 26.5 mph 34.5 mph N/A   Overcast
2:53 AM 39.0 °F 28.0 °F 30.0 °F 70% 29.47 in 10.0 mi WNW 25.3 mph 32.2 mph N/A   Clear
3:53 AM 37.9 °F 28.9 °F 30.9 °F 76% 29.49 in 10.0 mi WNW 16.1 mph - N/A   Mostly Cloudy
4:48 AM 37.4 °F 28.2 °F 33.8 °F 87% 29.49 in 10.0 mi NW 16.1 mph - N/A   Overcast
4:53 AM 37.0 °F 28.5 °F 32.0 °F 82% 29.52 in 10.0 mi NW 13.8 mph - N/A   Overcast
5:08 AM 37.4 °F 28.2 °F 32.0 °F 81% 29.49 in 10.0 mi WNW 16.1 mph - N/A   Overcast
5:35 AM 37.4 °F 28.9 °F 32.0 °F 81% 29.51 in 10.0 mi NW 13.8 mph - N/A   Overcast
5:42 AM 30.2 °F 15.9 °F 28.4 °F 93% 29.53 in 1.8 mi North 26.5 mph 35.7 mph 0.00 in Snow Light Snow
5:45 AM 30.2 °F 15.9 °F 26.6 °F 86% 29.53 in 1.0 mi North 26.5 mph 35.7 mph 0.00 in Snow Light Snow
5:48 AM 28.4 °F 13.8 °F 26.6 °F 93% 29.54 in 0.8 mi North 25.3 mph 34.5 mph 0.00 in Snow Light Snow
5:53 AM 28.9 °F 14.8 °F 26.1 °F 89% 29.57 in 0.5 mi North 24.2 mph 34.5 mph 0.00 in Fog , Snow Light Snow
6:17 AM 26.6 °F 11.1 °F 23.0 °F 86% 29.56 in 0.8 mi North 26.5 mph 36.8 mph 0.00 in Snow Light Snow
6:35 AM 24.8 °F 7.9 °F 21.2 °F 86% 29.58 in 0.5 mi North 29.9 mph 42.6 mph 0.01 in Fog , Snow Light Snow
6:50 AM 24.8 °F 7.6 °F 21.2 °F 86% 29.59 in 0.2 mi North 31.1 mph 38.0 mph 0.01 in Fog , Snow Light Snow
6:53 AM 24.8 °F 7.3 °F 21.2 °F 86% 29.59 in 0.2 mi North 32.2 mph 40.3 mph N/A Fog , Snow Snow
7:00 AM 23.0 °F 6.9 °F 19.4 °F 86% 29.60 in 0.2 mi North 24.2 mph 40.3 mph N/A Fog , Snow Snow
7:07 AM 23.0 °F 6.0 °F 19.4 °F 86% 29.61 in 0.5 mi North 27.6 mph 39.1 mph 0.00 in Fog Light Freezing Fog
7:19 AM 21.2 °F 4.5 °F 19.4 °F 93% 29.63 in 0.2 mi North 24.2 mph 39.1 mph 0.00 in Fog Light Freezing Fog
7:33 AM 21.2 °F 4.5 °F 17.6 °F 86% 29.64 in 0.2 mi North 24.2 mph 40.3 mph 0.00 in Fog Light Freezing Fog
7:36 AM 21.2 °F 4.5 °F 17.6 °F 86% 29.64 in 0.5 mi North 24.2 mph 40.3 mph 0.00 in Fog , Snow Light Snow
7:53 AM 19.9 °F 3.5 °F 17.1 °F 89% 29.70 in 0.5 mi North 21.9 mph 33.4 mph 0.00 in Fog , Snow Light Snow
8:18 AM 19.4 °F 3.6 °F 17.6 °F 93% 29.68 in 1.0 mi North 19.6 mph 31.1 mph 0.01 in Snow Light Snow
8:48 AM 19.4 °F 1.8 °F 15.8 °F 86% 29.71 in 0.5 mi North 25.3 mph 32.2 mph 0.01 in Fog , Snow Light Snow
8:53 AM 18.0 °F 0.6 °F 15.1 °F 88% 29.75 in 0.5 mi North 23.0 mph 35.7 mph 0.01 in Fog , Snow Light Snow
9:24 AM 17.6 °F 0.5 °F 15.8 °F 93% 29.74 in 1.5 mi North 21.9 mph 32.2 mph 0.00 in Snow Light Snow
9:48 AM 17.6 °F 3.7 °F 15.8 °F 93% 29.76 in 2.5 mi North 13.8 mph 25.3 mph 0.00 in Snow Light Snow
9:53 AM 18.0 °F 5.4 °F 15.1 °F 88% 29.81 in 2.5 mi North 11.5 mph 24.2 mph 0.00 in Snow Light Snow
10:06 AM 17.6 °F 1.7 °F 14.0 °F 86% 29.77 in 3.0 mi North 18.4 mph 27.6 mph 0.00 in   Overcast
10:23 AM 17.6 °F 1.7 °F 14.0 °F 86% 29.78 in 1.8 mi North 18.4 mph 27.6 mph 0.00 in Snow Light Snow
10:37 AM 17.6 °F 1.7 °F 14.0 °F 86% 29.79 in 2.0 mi North 18.4 mph 25.3 mph 0.00 in Snow Light Snow
10:48 AM 17.6 °F 2.7 °F 15.8 °F 93% 29.80 in 1.2 mi North 16.1 mph 24.2 mph 0.00 in Snow Light Snow
10:53 AM 18.0 °F 2.6 °F 15.1 °F 88% 29.84 in 1.2 mi North 17.3 mph 23.0 mph 0.00 in Snow Light Snow
11:32 AM 17.6 °F 0.9 °F 14.0 °F 86% 29.82 in 0.8 mi North 20.7 mph 28.8 mph 0.00 in Snow Light Snow
11:53 AM 18.0 °F 2.2 °F 14.0 °F 84% 29.86 in 0.5 mi North 18.4 mph 26.5 mph 0.00 in Fog , Snow Light Snow
12:53 PM 17.1 °F 0.1 °F 12.9 °F 84% 29.86 in 0.5 mi North 20.7 mph 29.9 mph 0.00 in Fog , Snow Light Snow
1:37 PM 17.6 °F 0.5 °F 12.2 °F 79% 29.83 in 0.2 mi North 21.9 mph 28.8 mph 0.00 in Fog , Snow Light Snow
1:53 PM 16.0 °F -0.4 °F 12.0 °F 84% 29.89 in 0.2 mi North 18.4 mph 33.4 mph 0.00 in Fog , Snow Light Snow
2:25 PM 15.8 °F 0.3 °F 12.2 °F 86% 29.85 in 0.8 mi North 16.1 mph - 0.00 in Snow Light Snow
2:53 PM 15.1 °F -0.6 °F 10.9 °F 84% 29.91 in 0.5 mi North 16.1 mph 25.3 mph 0.00 in Fog , Snow Light Snow
3:18 PM 14.0 °F -1.4 °F 8.6 °F 79% 29.87 in 0.5 mi North 15.0 mph 26.5 mph 0.00 in Snow Snow
3:37 PM 14.0 °F -3.0 °F 8.6 °F 79% 29.88 in 1.0 mi North 18.4 mph 24.2 mph 0.00 in Snow Light Snow
3:44 PM 15.8 °F 1.4 °F 8.6 °F 73% 29.88 in 0.8 mi North 13.8 mph 24.2 mph 0.00 in Snow Light Snow
3:53 PM 14.0 °F -3.4 °F 8.1 °F 77% 29.94 in 0.8 mi North 19.6 mph 26.5 mph 0.00 in Snow Light Snow
4:26 PM 14.0 °F -3.0 °F 8.6 °F 79% 29.90 in 1.2 mi North 18.4 mph 26.5 mph N/A Snow Light Snow
4:53 PM 14.0 °F -1.4 °F 8.6 °F 79% 29.92 in 1.8 mi North 15.0 mph 25.3 mph N/A Snow Light Snow
4:58 PM 14.0 °F -1.4 °F 8.6 °F 79% 29.92 in 3.0 mi North 15.0 mph 25.3 mph 0.00 in Snow Light Snow
5:53 PM 14.0 °F -0.8 °F 8.1 °F 77% 30.00 in 3.0 mi North 13.8 mph 23.0 mph 0.00 in Snow Light Snow
6:00 PM 14.0 °F 0.5 °F 8.6 °F 79% 29.95 in 2.0 mi North 11.5 mph 19.6 mph 0.00 in Snow Light Snow
6:16 PM 12.2 °F 0.7 °F 8.6 °F 85% 29.94 in 3.0 mi North 8.1 mph - 0.00 in Snow Light Snow
6:53 PM 12.9 °F -1.6 °F 7.0 °F 77% 30.02 in 6.0 mi North 12.7 mph - 0.00 in Snow Light Snow
7:42 PM 12.2 °F -3.1 °F 8.6 °F 85% 29.97 in 1.8 mi North 13.8 mph - 0.00 in Snow Light Snow
7:53 PM 12.9 °F -0.2 °F 8.1 °F 81% 30.03 in 1.8 mi North 10.4 mph - 0.00 in Snow Light Snow
8:00 PM 12.2 °F -1.8 °F 8.6 °F 85% 29.97 in 2.5 mi North 11.5 mph - 0.00 in Snow Light Snow
8:09 PM 12.2 °F -1.0 °F 8.6 °F 85% 29.97 in 3.0 mi North 10.4 mph - 0.00 in Snow Light Snow
8:13 PM 12.2 °F 0.7 °F 8.6 °F 85% 29.97 in 1.8 mi North 8.1 mph - 0.00 in Snow Light Snow
8:27 PM 12.2 °F -2.5 °F 6.8 °F 79% 29.97 in 3.0 mi North 12.7 mph - 0.00 in Snow Light Snow
8:53 PM 12.2 °F -0.2 °F 6.8 °F 79% 29.97 in 3.0 mi North 9.2 mph - N/A Snow Light Snow
9:04 PM 12.2 °F 0.7 °F 6.8 °F 79% 29.98 in 1.8 mi North 8.1 mph - 0.00 in Snow Light Snow
9:22 PM 12.2 °F -0.2 °F 6.8 °F 79% 29.98 in 2.5 mi North 9.2 mph - 0.00 in Snow Light Snow
9:29 PM 12.2 °F 1.7 °F 6.8 °F 79% 29.98 in 4.0 mi North 6.9 mph - 0.00 in Snow Light Snow
9:53 PM 12.0 °F -0.4 °F 7.0 °F 80% 30.04 in 2.5 mi NNE 9.2 mph - 0.00 in Snow Light Snow
10:01 PM 12.2 °F -1.0 °F 6.8 °F 79% 29.98 in 3.0 mi North 10.4 mph - 0.00 in Snow Light Snow
10:53 PM 12.0 °F 1.5 °F 6.1 °F 77% 30.05 in 10.0 mi North 6.9 mph - 0.00 in   Overcast
11:53 PM 12.0 °F 2.7 °F 6.1 °F 77% 30.06 in 10.0 mi North 5.8 mph - N/A   Overcast